{"data":{"norad_id":59730,"epoch":"2026-05-24T22:50:25.689408Z","epoch_age_seconds":79420,"freshness":"FRESH","line1":"1 59730U 24090A   26144.95168622 -.00000203  00000+0  21288-5 0  9996","line2":"2 59730  43.0027 112.7867 0000731 262.3012  97.7756 15.27571996115102","mean_motion":15.27571996,"eccentricity":7.31e-5,"inclination_deg":43.0027,"raan_deg":112.7867,"arg_perigee_deg":262.3012,"mean_anomaly_deg":97.7756,"bstar":2.1288e-6,"rev_number":11510,"period_min":94.267242641963,"perigee_km":482.57150854412,"apogee_km":483.57461745533,"semimajor_km":6861.2100629997,"source":"CELESTRAK","updated_at":"2026-05-25T13:38:19.050197Z"}}